Regional Weather Roundup
Issued by NWS

Home | Current Version | Previous Version | Text Only | Print | Product List | Glossary On
Versions: 1 2 3 4 5 6 7 8 9 10 11 12 13 14 15 16 17 18 19 20 21 22 23 24 25 26 27 28 29 30 31 32 33 34 35 36 37 38 39 40 41 42 43 44 45 46 47 48 49 50
000
ASUS44 KBMX 032310
RWRAL

ALABAMA REGIONAL WEATHER ROUNDUP
NATIONAL WEATHER SERVICE BIRMINGHAM AL
500 PM CST TUE MAR 03 2015

NOTE: "FAIR" INDICATES FEW OR NO CLOUDS BELOW 12,000 FEET
WITH NO SIGNIFICANT WEATHER AND/OR OBSTRUCTIONS TO VISIBILITY.

THE REMARK "TC" DENOTES TEMPERATURE IN DEGREES CELSIUS.

ALZ001>011-014-016>018-020-040000-
NORTH ALABAMA

CITY           SKY/WX    TMP DP  RH WIND       PRES   REMARKS
MUSCLE SHOALS  CLOUDY    64  60  87 S9        29.97F
HUNTSVILLE     LGT RAIN  62  60  93 S8        30.00F VSB 1/2
DECATUR        CLOUDY    61  60  97 S9        29.99F FOG
HALEYVILLE       N/A     61  32  33 S8        30.02F HAZE
GADSDEN        CLOUDY    54  52  94 CALM      30.05S VSB 1/4
$$

ALZ012-013-022-023-030>036-040>044-040000-
WEST CENTRAL ALABAMA

CITY           SKY/WX    TMP DP  RH WIND       PRES   REMARKS
TUSCALOOSA     MOCLDY    71  64  78 S5        30.01F
$$

ALZ015-024>027-033>036-040>044-040000-
CENTRAL ALABAMA

CITY           SKY/WX    TMP DP  RH WIND       PRES   REMARKS
BIRMINGHAM     CLOUDY    63  62  97 NE5       30.05F FOG
MONTGOMERY       N/A     76  60  57 MISG      30.05S
SHELBY CO ARPT PTCLDY    68  65  90 CALM      30.04S FOG
MAXWELL AFB    MOCLDY    76  62  60 SW8       30.04S
GREENVILLE     FAIR      73  61  65 S8        30.05F
$$

ALZ019-021-028-029-037-038-045>048-040000-
EAST CENTRAL ALABAMA

CITY           SKY/WX    TMP DP  RH WIND       PRES   REMARKS
ANNISTON       CLOUDY    63  61  93 NE5       30.05S
ALEXANDER CITY PTCLDY    74  61  62 CALM      30.06S
AUBURN         MOCLDY    72  57  60 SW12      30.09F
$$

ALZ051>064-040000-
SOUTHWEST ALABAMA

CITY           SKY/WX    TMP DP  RH WIND       PRES   REMARKS
MOBILE         PTSUNNY   68  63  84 SE13      30.06F
BROOKLEY FIELD SUNNY     67  63  87 S12       30.07F
EVERGREEN      PTCLDY    71  62  73 S12       30.07F
$$

ALZ049-050-065>069-040000-
SOUTHEAST ALABAMA

CITY           SKY/WX    TMP DP  RH WIND       PRES   REMARKS
DOTHAN         CLEAR     77  61  57 SW14      30.11R
OZARK          PTCLDY    75  60  60 S13       30.08R
TROY           MOCLDY    76  61  59 SW14      30.07S
EUFAULA        MOCLDY    81  61  50 SW7       30.05S
$$


USA.gov is the U.S. government's official web portal to all federal, state and local government web resources and services.